Moron de la Frontera, Spain

3:57 PM CEST on June 25, 2017 (GMT +0200)
Moron Air Base

Weather History for LEMO - September, 2013

Change the Weather History Date:

Friday, September 6, 2013

  Actual Average Record
Temperature  
Mean Temperature 78 °F -  
Max Temperature 86 °F 83 °F 110 °F (2016)
Min Temperature 69 °F 61 °F 57 °F (2002)
Cooling Degree Days 12    
Growing Degree Days 28 (Base 50)    
Moisture  
Dew Point 63 °F    
Average Humidity 65    
Maximum Humidity 83    
Minimum Humidity 45    
Precipitation  
Precipitation 0.00 in - - ()
Sea Level Pressure  
Sea Level Pressure 29.92 in    
Wind  
Wind Speed 4 mph ()    
Max Wind Speed 12 mph    
Max Gust Speed -    
Visibility 6.2 miles    
Events      
Averages and records for this station are not official NWS values.
T = Trace of Precipitation, MM = Missing Value Source: Averaged Metar Reports

Daily Weather History Graph

Daily Weather History Graph

Search for Another Location

Airport or City:

Trip Planner

Search our weather history database for the weather conditions in past years. The results will help you decide how hot, cold, wet, or windy it might be!

Date:

Astronomy

Sep. 06, 2013 Rise Set
Actual Time 7:57 AM CEST 8:43 PM CEST
Civil Twilight 7:30 AM CEST 9:10 PM CEST
Nautical Twilight 6:59 AM CEST 9:41 PM CEST
Astronomical Twilight 6:27 AM CEST 10:13 PM CEST
Moon 8:52 AM CEST (9/6) 9:03 PM CEST (9/6)
Length of Visible Light 13h 39m
Length of Day
12h 46m
New Moon, 1% of the Moon is Illuminated
Sep 6
New Moon
Sep 12
First Quarter
Sep 19
Full
Sep 27
Last Quarter
Oct 5
New

Hourly Weather History & Observations

Time (CEST) Temp. Heat Index Dew Point Humidity Pressure Visibility Wind Dir Wind Speed Gust Speed Precip Events Conditions
12:00 AM 71.6 °F - 64.4 °F 78% 29.95 in - SW 3.5 mph - N/A   Clear
1:00 AM 69.8 °F - 64.4 °F 83% 29.95 in 6.2 mi Calm Calm - N/A   Scattered Clouds
2:00 AM 71.6 °F - 64.4 °F 78% 29.95 in 6.2 mi Calm Calm - N/A   Scattered Clouds
3:00 AM 69.8 °F - 64.4 °F 83% 29.92 in 6.2 mi Calm Calm - N/A   Scattered Clouds
5:00 AM 69.8 °F - 64.4 °F 83% 29.92 in 6.2 mi Variable 1.2 mph - N/A   Mostly Cloudy
6:00 AM 69.8 °F - 62.6 °F 78% 29.92 in 6.2 mi Calm Calm - N/A   Mostly Cloudy
8:00 AM 71.6 °F - 62.6 °F 73% 29.92 in 6.2 mi Variable 1.2 mph - N/A   Mostly Cloudy
9:00 AM 71.6 °F - 62.6 °F 73% 29.95 in 6.2 mi South 5.8 mph - N/A   Mostly Cloudy
10:00 AM 73.4 °F - 62.6 °F 69% 29.95 in 6.2 mi South 5.8 mph - N/A   Mostly Cloudy
11:00 AM 75.2 °F - 62.6 °F 65% 29.95 in 6.2 mi SSW 6.9 mph - N/A   Mostly Cloudy
12:00 PM 77.0 °F - 62.6 °F 61% 29.95 in 6.2 mi Variable 2.3 mph - N/A   Mostly Cloudy
1:00 PM 80.6 °F 81.5 °F 60.8 °F 51% 29.95 in 6.2 mi West 6.9 mph - N/A   Mostly Cloudy
2:00 PM 80.6 °F 81.5 °F 60.8 °F 51% 29.92 in 6.2 mi Variable 5.8 mph - N/A   Mostly Cloudy
3:00 PM 84.2 °F 85.0 °F 62.6 °F 48% 29.92 in 6.2 mi West 10.4 mph - N/A   Scattered Clouds
4:00 PM 86.0 °F 86.6 °F 62.6 °F 45% 29.89 in 6.2 mi Variable 6.9 mph - N/A   Scattered Clouds
5:00 PM 84.2 °F 85.0 °F 62.6 °F 48% 29.89 in 6.2 mi West 10.4 mph - N/A   Scattered Clouds
6:00 PM 84.2 °F 85.6 °F 64.4 °F 51% 29.89 in 6.2 mi West 9.2 mph - N/A   Scattered Clouds
7:00 PM 80.6 °F 82.3 °F 64.4 °F 58% 29.86 in 6.2 mi West 11.5 mph - N/A   Scattered Clouds
8:00 PM 80.6 °F 81.8 °F 62.6 °F 54% 29.89 in - West 10.4 mph - N/A   Clear
9:00 PM 75.2 °F - 62.6 °F 65% 29.89 in - West 9.2 mph - N/A   Clear
10:00 PM 73.4 °F - 62.6 °F 69% 29.92 in - West 5.8 mph - N/A   Clear
11:00 PM 71.6 °F - 62.6 °F 73% 29.95 in - WSW 9.2 mph - N/A   Clear